World > North America > United States > North Carolina

Tarawa Terrace, North Carolina Regional Weather

Lat: 34.72N, Lon: 77.26W
Wx Zone: NCZ098
Feedback

Tarawa Terrace, NC Regional Weather

Expires:201910190800;;930396
ASUS42 KMHX 190726
RWRMHX
WEATHER ROUNDUP FOR EASTERN NORTH CAROLINA
NATIONAL WEATHER SERVICE NEWPORT/MOREHEAD CITY NC
300 AM EDT SAT OCT 19 2019

NOTE: "FAIR" INDICATES FEW OR NO CLOUDS BELOW 12,000 FEET
WITH NO SIGNIFICANT WEATHER AND/OR OBSTRUCTIONS TO VISIBILITY


NCZ011>013-027>030-043-044-078>080-089-090>093-098-190800-
COASTAL PLAIN
  
CITY           SKY/WX    TMP DP  RH WIND       PRES   REMARKS
AHOSKIE        NOT AVBL                                               
CLINTON        FAIR      48  44  85 CALM      30.07S                  
ELIZABETHTOWN  FAIR      47  44  88 NE3       30.06F                  
GOLDSBORO      FAIR      45  43  90 CALM      30.07R                  
GREENVILLE       N/A     43  43 100 CALM      30.09S FOG              
HAVELOCK       NOT AVBL                                               
KENANSVILLE    FAIR      43  41  93 CALM      30.07F                  
KINSTON        FAIR      42  40  95 CALM      30.09S                  
NEW BERN       FAIR      45  45 100 CALM      30.09R                  
RICHLANDS      FAIR      43  42  97 CALM      30.09R                  
ROCKY MOUNT    FAIR      44  43  96 CALM      30.08R                  
WASHINGTON     NOT AVBL                                               
WHITEVILLE     FAIR      46  45  96 CALM      30.05F                  

$$


SKY/WX - Weather  TMP - Temperature  DP - Dew Point  RH - Relative Humidity
WIND - Wind Direction/Speed PRES - Barometric Pressure VSB - Visibility
WCI - Wind Chill Index E13G22 Wind - East Wind 13 mph/Gusts of 22 mph